| time (UTC) | temp F | wind direction | speed MPH | gust MPH | rain 1hr in | rain 24hr in | rain mn in | humidity % | barometer mb |
| 20260903003206 | 82 | 0 | 1.0 | 3.0 | 0.00 | 0.00 | 0.00 | 31 | 1016.5 |
| 20260903002705 | 82 | 9 | 0.0 | 3.0 | 0.00 | 0.00 | 0.00 | 31 | 1016.4 |
| 20260903001705 | 83 | 344 | 0.0 | 1.0 | 0.00 | 0.00 | 0.00 | 31 | 1016.5 |
| 20260903001206 | 83 | 344 | 1.0 | 3.0 | 0.00 | 0.00 | 0.00 | 28 | 1016.5 |
| 20260903000706 | 83 | 43 | 0.0 | 3.0 | 0.00 | 0.00 | 0.00 | 30 | 1016.5 |
| 20260903000205 | 84 | 18 | 0.0 | 0.0 | 0.00 | 0.00 | 0.00 | 29 | 1016.5 |
| 20260902235706 | 84 | 18 | 0.0 | 6.0 | 0.00 | 0.00 | 0.00 | 28 | 1016.5 |
| 20260902235206 | 85 | 280 | 1.0 | 5.0 | 0.00 | 0.00 | 0.00 | 28 | 1016.4 |
| 20260902234706 | 85 | 32 | 1.0 | 3.0 | 0.00 | 0.00 | 0.00 | 28 | 1016.4 |
| 20260902234206 | 85 | 355 | 0.0 | 5.0 | 0.00 | 0.00 | 0.00 | 29 | 1016.5 |
| 20260902233205 | 85 | 354 | 2.0 | 5.0 | 0.00 | 0.00 | 0.00 | 29 | 1016.6 |
| 20260902232705 | 85 | 293 | 1.0 | 8.0 | 0.00 | 0.00 | 0.00 | 28 | 1016.6 |
| 20260902232205 | 85 | 262 | 2.0 | 8.0 | 0.00 | 0.00 | 0.00 | 28 | 1016.6 |
| 20260902231706 | 86 | 337 | 1.0 | 9.0 | 0.00 | 0.00 | 0.00 | 27 | 1016.6 |
| 20260902231206 | 86 | 347 | 6.0 | 12.0 | 0.00 | 0.00 | 0.00 | 25 | 1016.6 |
| 20260902230706 | 87 | 5 | 0.0 | 2.0 | 0.00 | 0.00 | 0.00 | 27 | 1016.5 |
| 20260902230205 | 87 | 5 | 0.0 | 1.0 | 0.00 | 0.00 | 0.00 | 26 | 1016.4 |
| 20260902225705 | 87 | 5 | 0.0 | 0.0 | 0.00 | 0.00 | 0.00 | 27 | 1016.4 |
| 20260902225206 | 87 | 5 | 0.0 | 1.0 | 0.00 | 0.00 | 0.00 | 25 | 1016.4 |
| 20260902224205 | 87 | 5 | 0.0 | 0.0 | 0.00 | 0.00 | 0.00 | 27 | 1016.3 |
| 20260902223705 | 88 | 5 | 0.0 | 2.0 | 0.00 | 0.00 | 0.00 | 25 | 1016.4 |
| 20260902223205 | 88 | 4 | 1.0 | 3.0 | 0.00 | 0.00 | 0.00 | 26 | 1016.4 |
| 20260902222705 | 88 | 120 | 0.0 | 1.0 | 0.00 | 0.00 | 0.00 | 25 | 1016.3 |
| 20260902222205 | 89 | 32 | 1.0 | 8.0 | 0.00 | 0.00 | 0.00 | 23 | 1016.2 |
| 20260902221705 | 90 | 139 | 1.0 | 5.0 | 0.00 | 0.00 | 0.00 | 23 | 1016.2 |
| 20260902221205 | 90 | 78 | 0.0 | 3.0 | 0.00 | 0.00 | 0.00 | 22 | 1016.2 |
| 20260902220705 | 90 | 91 | 1.0 | 5.0 | 0.00 | 0.00 | 0.00 | 23 | 1016.2 |
| 20260902220205 | 90 | 151 | 1.0 | 2.0 | 0.00 | 0.00 | 0.00 | 22 | 1016.4 |
| 20260902215206 | 89 | 146 | 1.0 | 3.0 | 0.00 | 0.00 | 0.00 | 21 | 1016.5 |
| 20260902214706 | 89 | 131 | 1.0 | 2.0 | 0.00 | 0.00 | 0.00 | 24 | 1016.6 |
| 20260902214205 | 89 | 84 | 2.0 | 3.0 | 0.00 | 0.00 | 0.00 | 22 | 1016.6 |
| 20260902213705 | 90 | 119 | 1.0 | 3.0 | 0.00 | 0.00 | 0.00 | 22 | 1016.7 |
| 20260902213205 | 90 | 12 | 0.0 | 2.0 | 0.00 | 0.00 | 0.00 | 24 | 1016.7 |
| 20260902212705 | 90 | 12 | 1.0 | 6.0 | 0.00 | 0.00 | 0.00 | 21 | 1016.7 |
| 20260902212205 | 90 | 165 | 0.0 | 6.0 | 0.00 | 0.00 | 0.00 | 22 | 1016.8 |
| 20260902211705 | 90 | 169 | 2.0 | 5.0 | 0.00 | 0.00 | 0.00 | 22 | 1016.9 |
| 20260902211205 | 90 | 121 | 2.0 | 3.0 | 0.00 | 0.00 | 0.00 | 23 | 1016.9 |
| 20260902210705 | 90 | 224 | 2.0 | 3.0 | 0.00 | 0.00 | 0.00 | 21 | 1017.0 |
| 20260902210205 | 90 | 132 | 1.0 | 3.0 | 0.00 | 0.00 | 0.00 | 22 | 1017.1 |
| 20260902205706 | 90 | 130 | 1.0 | 3.0 | 0.00 | 0.00 | 0.00 | 25 | 1017.1 |
| 20260902205205 | 90 | 40 | 1.0 | 3.0 | 0.00 | 0.00 | 0.00 | 21 | 1017.2 |
| 20260902204205 | 90 | 185 | 1.0 | 7.0 | 0.00 | 0.00 | 0.00 | 22 | 1017.4 |
| 20260902203705 | 90 | 100 | 1.0 | 5.0 | 0.00 | 0.00 | 0.00 | 23 | 1017.5 |
| 20260902203205 | 89 | 123 | 2.0 | 3.0 | 0.00 | 0.00 | 0.00 | 22 | 1017.6 |
| 20260902202705 | 89 | 142 | 2.0 | 5.0 | 0.00 | 0.00 | 0.00 | 24 | 1017.6 |
| 20260902202205 | 89 | 51 | 0.0 | 5.0 | 0.00 | 0.00 | 0.00 | 21 | 1017.6 |
| 20260902201705 | 89 | 81 | 1.0 | 3.0 | 0.00 | 0.00 | 0.00 | 24 | 1017.7 |
| 20260902201205 | 89 | 175 | 1.0 | 2.0 | 0.00 | 0.00 | 0.00 | 22 | 1017.8 |
| 20260902200704 | 89 | 126 | 1.0 | 5.0 | 0.00 | 0.00 | 0.00 | 23 | 1017.9 |
| 20260902200205 | 88 | 92 | 2.0 | 3.0 | 0.00 | 0.00 | 0.00 | 23 | 1018.0 |
| 20260902195205 | 88 | 136 | 1.0 | 3.0 | 0.00 | 0.00 | 0.00 | 24 | 1018.1 |
| 20260902194705 | 88 | 101 | 3.0 | 3.0 | 0.00 | 0.00 | 0.00 | 22 | 1018.1 |
| 20260902194205 | 87 | 147 | 0.0 | 5.0 | 0.00 | 0.00 | 0.00 | 24 | 1018.1 |
| 20260902193705 | 87 | 76 | 2.0 | 7.0 | 0.00 | 0.00 | 0.00 | 24 | 1018.2 |
| 20260902193205 | 87 | 116 | 1.0 | 3.0 | 0.00 | 0.00 | 0.00 | 26 | 1018.3 |
| 20260902192705 | 87 | 85 | 3.0 | 7.0 | 0.00 | 0.00 | 0.00 | 24 | 1018.4 |
| 20260902192205 | 87 | 129 | 1.0 | 7.0 | 0.00 | 0.00 | 0.00 | 25 | 1018.5 |
| 20260902191705 | 87 | 111 | 2.0 | 6.0 | 0.00 | 0.00 | 0.00 | 25 | 1018.5 |
| 20260902191205 | 86 | 99 | 2.0 | 5.0 | 0.00 | 0.00 | 0.00 | 24 | 1018.5 |
| 20260902190205 | 86 | 92 | 1.0 | 3.0 | 0.00 | 0.00 | 0.00 | 24 | 1018.7 |
| 20260902185705 | 86 | 95 | 1.0 | 7.0 | 0.00 | 0.00 | 0.00 | 27 | 1018.8 |
| 20260902185205 | 86 | 167 | 3.0 | 6.0 | 0.00 | 0.00 | 0.00 | 26 | 1018.8 |
| 20260902184705 | 85 | 197 | 1.0 | 3.0 | 0.00 | 0.00 | 0.00 | 28 | 1018.9 |
| 20260902184205 | 85 | 63 | 2.0 | 3.0 | 0.00 | 0.00 | 0.00 | 27 | 1018.9 |
| 20260902183705 | 84 | 120 | 2.0 | 5.0 | 0.00 | 0.00 | 0.00 | 28 | 1019.0 |
| 20260902183206 | 85 | 71 | 4.0 | 8.0 | 0.00 | 0.00 | 0.00 | 26 | 1019.1 |
| 20260902182706 | 85 | 53 | 2.0 | 3.0 | 0.00 | 0.00 | 0.00 | 27 | 1019.2 |
| 20260902181705 | 84 | 128 | 0.0 | 3.0 | 0.00 | 0.00 | 0.00 | 27 | 1019.3 |
| 20260902181204 | 84 | 114 | 1.0 | 5.0 | 0.00 | 0.00 | 0.00 | 26 | 1019.5 |
| 20260902180705 | 83 | 72 | 1.0 | 3.0 | 0.00 | 0.00 | 0.00 | 27 | 1019.5 |
| 20260902175205 | 83 | 79 | 1.0 | 5.0 | 0.00 | 0.00 | 0.00 | 26 | 1019.8 |
| 20260902174705 | 83 | 61 | 3.0 | 7.0 | 0.00 | 0.00 | 0.00 | 27 | 1019.8 |
| 20260902174205 | 83 | 93 | 3.0 | 5.0 | 0.00 | 0.00 | 0.00 | 28 | 1019.8 |
| 20260902173205 | 83 | 141 | 2.0 | 3.0 | 0.00 | 0.00 | 0.00 | 28 | 1019.9 |
| 20260902172705 | 83 | 119 | 2.0 | 6.0 | 0.00 | 0.00 | 0.00 | 28 | 1019.9 |
| 20260902172204 | 82 | 142 | 1.0 | 3.0 | 0.00 | 0.00 | 0.00 | 31 | 1019.9 |
| 20260902171705 | 82 | 142 | 1.0 | 3.0 | 0.00 | 0.00 | 0.00 | 30 | 1020.0 |
| 20260902170705 | 81 | 152 | 2.0 | 6.0 | 0.00 | 0.00 | 0.00 | 31 | 1020.1 |
| 20260902170205 | 81 | 154 | 1.0 | 5.0 | 0.00 | 0.00 | 0.00 | 31 | 1020.1 |
| 20260902165705 | 81 | 185 | 1.0 | 3.0 | 0.00 | 0.00 | 0.00 | 32 | 1020.2 |
| 20260902165205 | 80 | 170 | 2.0 | 5.0 | 0.00 | 0.00 | 0.00 | 33 | 1020.3 |
| 20260902164705 | 80 | 111 | 1.0 | 3.0 | 0.00 | 0.00 | 0.00 | 33 | 1020.3 |
| 20260902164204 | 79 | 200 | 1.0 | 2.0 | 0.00 | 0.00 | 0.00 | 35 | 1020.3 |
| 20260902163705 | 79 | 126 | 1.0 | 3.0 | 0.00 | 0.00 | 0.00 | 36 | 1020.3 |
| 20260902163205 | 78 | 125 | 1.0 | 5.0 | 0.00 | 0.00 | 0.00 | 36 | 1020.3 |
| 20260902162705 | 78 | 170 | 0.0 | 2.0 | 0.00 | 0.00 | 0.00 | 37 | 1020.3 |
| 20260902162205 | 77 | 163 | 1.0 | 3.0 | 0.00 | 0.00 | 0.00 | 38 | 1020.3 |
| 20260902161704 | 77 | 122 | 1.0 | 3.0 | 0.00 | 0.00 | 0.00 | 40 | 1020.3 |
| 20260902160705 | 76 | 195 | 0.0 | 3.0 | 0.00 | 0.00 | 0.00 | 42 | 1020.4 |
| 20260902160205 | 75 | 195 | 1.0 | 3.0 | 0.00 | 0.00 | 0.00 | 42 | 1020.4 |
| 20260902155705 | 74 | 121 | 1.0 | 2.0 | 0.00 | 0.00 | 0.00 | 46 | 1020.4 |
| 20260902155205 | 73 | 163 | 0.0 | 2.0 | 0.00 | 0.00 | 0.00 | 45 | 1020.4 |
| 20260902154704 | 72 | 163 | 2.0 | 5.0 | 0.00 | 0.00 | 0.00 | 45 | 1020.4 |
| 20260902153705 | 71 | 207 | 1.0 | 5.0 | 0.00 | 0.00 | 0.00 | 49 | 1020.4 |
| 20260902153205 | 70 | 155 | 1.0 | 2.0 | 0.00 | 0.00 | 0.00 | 49 | 1020.4 |
| 20260902152204 | 69 | 170 | 2.0 | 3.0 | 0.00 | 0.00 | 0.00 | 51 | 1020.4 |
| 20260902151705 | 68 | 191 | 1.0 | 3.0 | 0.00 | 0.00 | 0.00 | 53 | 1020.3 |
| 20260902151204 | 68 | 191 | 0.0 | 1.0 | 0.00 | 0.00 | 0.00 | 54 | 1020.3 |
| 20260902150704 | 67 | 191 | 1.0 | 3.0 | 0.00 | 0.00 | 0.00 | 55 | 1020.3 |
| 20260902150204 | 66 | 191 | 1.0 | 2.0 | 0.00 | 0.00 | 0.00 | 60 | 1020.4 |
| 20260902145705 | 65 | 191 | 0.0 | 0.0 | 0.00 | 0.00 | 0.00 | 62 | 1020.4 |
| 20260902145204 | 64 | 191 | 0.0 | 0.0 | 0.00 | 0.00 | 0.00 | 62 | 1020.4 |
| 20260902144705 | 63 | 191 | 0.0 | 0.0 | 0.00 | 0.00 | 0.00 | 66 | 1020.4 |
| 20260902144204 | 63 | 191 | 0.0 | 0.0 | 0.00 | 0.00 | 0.00 | 69 | 1020.3 |
| 20260902143705 | 62 | 191 | 0.0 | 0.0 | 0.00 | 0.00 | 0.00 | 75 | 1020.3 |
| 20260902143204 | 61 | 191 | 0.0 | 0.0 | 0.00 | 0.00 | 0.00 | 76 | 1020.2 |
| 20260902142705 | 60 | 191 | 0.0 | 0.0 | 0.00 | 0.00 | 0.00 | 78 | 1020.3 |
| 20260902142204 | 59 | 191 | 0.0 | 0.0 | 0.00 | 0.00 | 0.00 | 79 | 1020.3 |
| 20260902141705 | 59 | 191 | 0.0 | 0.0 | 0.00 | 0.00 | 0.00 | 81 | 1020.4 |
| 20260902141205 | 58 | 191 | 0.0 | 0.0 | 0.00 | 0.00 | 0.00 | 82 | 1020.3 |
| 20260902140204 | 57 | 191 | 0.0 | 0.0 | 0.00 | 0.00 | 0.00 | 84 | 1020.3 |
| 20260902135704 | 56 | 191 | 0.0 | 0.0 | 0.00 | 0.00 | 0.00 | 84 | 1020.3 |
| 20260902135204 | 56 | 191 | 0.0 | 0.0 | 0.00 | 0.00 | 0.00 | 84 | 1020.3 |
| 20260902134705 | 55 | 191 | 0.0 | 0.0 | 0.00 | 0.00 | 0.00 | 84 | 1020.3 |
| 20260902134204 | 55 | 191 | 0.0 | 0.0 | 0.00 | 0.00 | 0.00 | 84 | 1020.3 |
| 20260902133705 | 55 | 191 | 0.0 | 0.0 | 0.00 | 0.00 | 0.00 | 83 | 1020.3 |
| 20260902133205 | 55 | 191 | 0.0 | 0.0 | 0.00 | 0.00 | 0.00 | 83 | 1020.3 |
| 20260902132704 | 55 | 191 | 0.0 | 0.0 | 0.00 | 0.00 | 0.00 | 83 | 1020.3 |
| 20260902132204 | 54 | 191 | 0.0 | 0.0 | 0.00 | 0.00 | 0.00 | 83 | 1020.3 |
| 20260902131704 | 54 | 191 | 0.0 | 0.0 | 0.00 | 0.00 | 0.00 | 82 | 1020.1 |
| 20260902130704 | 54 | 191 | 0.0 | 0.0 | 0.00 | 0.00 | 0.00 | 82 | 1020.0 |
| 20260902130204 | 54 | 191 | 0.0 | 0.0 | 0.00 | 0.00 | 0.00 | 81 | 1020.0 |
| 20260902125705 | 54 | 191 | 0.0 | 1.0 | 0.00 | 0.00 | 0.00 | 81 | 1020.0 |
| 20260902125204 | 54 | 191 | 0.0 | 1.0 | 0.00 | 0.00 | 0.00 | 80 | 1019.9 |
| 20260902124705 | 54 | 191 | 0.0 | 0.0 | 0.00 | 0.00 | 0.00 | 79 | 1019.9 |
| 20260902124205 | 55 | 191 | 0.0 | 1.0 | 0.00 | 0.00 | 0.00 | 79 | 1019.9 |
| 20260902123704 | 55 | 191 | 0.0 | 0.0 | 0.00 | 0.00 | 0.00 | 78 | 1019.8 |
| 20260902123204 | 55 | 191 | 0.0 | 0.0 | 0.00 | 0.00 | 0.00 | 78 | 1019.8 |
| 20260902122705 | 55 | 191 | 0.0 | 1.0 | 0.00 | 0.00 | 0.00 | 78 | 1019.8 |
| 20260902122204 | 55 | 191 | 0.0 | 1.0 | 0.00 | 0.00 | 0.00 | 77 | 1019.8 |
| 20260902121705 | 56 | 191 | 0.0 | 0.0 | 0.00 | 0.00 | 0.00 | 77 | 1019.7 |
| 20260902121205 | 56 | 191 | 0.0 | 0.0 | 0.00 | 0.00 | 0.00 | 76 | 1019.7 |
| 20260902120704 | 56 | 191 | 0.0 | 0.0 | 0.00 | 0.00 | 0.00 | 76 | 1019.6 |
| 20260902120205 | 56 | 191 | 0.0 | 0.0 | 0.00 | 0.00 | 0.00 | 75 | 1019.6 |
| 20260902115704 | 56 | 191 | 0.0 | 0.0 | 0.00 | 0.00 | 0.00 | 75 | 1019.6 |
| 20260902115205 | 56 | 191 | 0.0 | 0.0 | 0.00 | 0.00 | 0.00 | 75 | 1019.6 |
| 20260902114704 | 57 | 191 | 0.0 | 0.0 | 0.00 | 0.00 | 0.00 | 75 | 1019.5 |
| 20260902114205 | 57 | 191 | 0.0 | 0.0 | 0.00 | 0.00 | 0.00 | 74 | 1019.5 |
| 20260902113704 | 57 | 191 | 0.0 | 0.0 | 0.00 | 0.00 | 0.00 | 74 | 1019.4 |
| 20260902113205 | 57 | 191 | 0.0 | 0.0 | 0.00 | 0.00 | 0.00 | 73 | 1019.4 |
| 20260902112704 | 57 | 191 | 0.0 | 0.0 | 0.00 | 0.00 | 0.00 | 72 | 1019.5 |
| 20260902112204 | 57 | 191 | 0.0 | 0.0 | 0.00 | 0.00 | 0.00 | 72 | 1019.6 |
| 20260902111705 | 57 | 191 | 0.0 | 0.0 | 0.00 | 0.00 | 0.00 | 72 | 1019.7 |
| 20260902111204 | 58 | 191 | 0.0 | 0.0 | 0.00 | 0.00 | 0.00 | 71 | 1019.6 |
| 20260902110704 | 58 | 191 | 0.0 | 0.0 | 0.00 | 0.00 | 0.00 | 71 | 1019.5 |
| 20260902110204 | 58 | 191 | 0.0 | 0.0 | 0.00 | 0.00 | 0.00 | 70 | 1019.4 |
| 20260902105704 | 58 | 191 | 0.0 | 0.0 | 0.00 | 0.00 | 0.00 | 70 | 1019.4 |
| 20260902104704 | 58 | 191 | 0.0 | 0.0 | 0.00 | 0.00 | 0.00 | 69 | 1019.4 |
| 20260902104204 | 58 | 191 | 0.0 | 0.0 | 0.00 | 0.00 | 0.00 | 69 | 1019.4 |
| 20260902103704 | 59 | 191 | 0.0 | 0.0 | 0.00 | 0.00 | 0.00 | 69 | 1019.4 |
| 20260902102705 | 59 | 191 | 0.0 | 0.0 | 0.00 | 0.00 | 0.00 | 69 | 1019.2 |
| 20260902102204 | 59 | 191 | 0.0 | 0.0 | 0.00 | 0.00 | 0.00 | 69 | 1019.2 |
| 20260902101704 | 59 | 191 | 0.0 | 0.0 | 0.00 | 0.00 | 0.00 | 69 | 1019.2 |
| 20260902100704 | 59 | 191 | 0.0 | 0.0 | 0.00 | 0.00 | 0.00 | 69 | 1019.3 |
| 20260902100204 | 59 | 191 | 0.0 | 0.0 | 0.00 | 0.00 | 0.00 | 70 | 1019.3 |
| 20260902095705 | 59 | 191 | 0.0 | 0.0 | 0.00 | 0.00 | 0.00 | 69 | 1019.2 |
| 20260902095205 | 59 | 191 | 0.0 | 0.0 | 0.00 | 0.00 | 0.00 | 69 | 1019.3 |
| 20260902094704 | 59 | 191 | 0.0 | 0.0 | 0.00 | 0.00 | 0.00 | 69 | 1019.2 |
| 20260902094204 | 59 | 191 | 0.0 | 1.0 | 0.00 | 0.00 | 0.00 | 69 | 1019.2 |
| 20260902093704 | 59 | 191 | 0.0 | 0.0 | 0.00 | 0.00 | 0.00 | 69 | 1019.2 |
| 20260902093204 | 59 | 191 | 0.0 | 0.0 | 0.00 | 0.00 | 0.00 | 70 | 1019.3 |
| 20260902092204 | 59 | 191 | 0.0 | 0.0 | 0.00 | 0.00 | 0.00 | 70 | 1019.3 |
| 20260902091705 | 59 | 191 | 0.0 | 0.0 | 0.00 | 0.00 | 0.00 | 70 | 1019.3 |
| 20260902091205 | 59 | 191 | 0.0 | 0.0 | 0.00 | 0.00 | 0.00 | 70 | 1019.4 |
| 20260902090704 | 59 | 191 | 0.0 | 0.0 | 0.00 | 0.00 | 0.00 | 69 | 1019.3 |
| 20260902090204 | 59 | 191 | 0.0 | 0.0 | 0.00 | 0.00 | 0.00 | 69 | 1019.4 |
| 20260902085704 | 60 | 191 | 0.0 | 0.0 | 0.00 | 0.00 | 0.00 | 69 | 1019.3 |
| 20260902085204 | 60 | 191 | 0.0 | 0.0 | 0.00 | 0.00 | 0.00 | 69 | 1019.3 |
| 20260902084705 | 60 | 191 | 0.0 | 0.0 | 0.00 | 0.00 | 0.00 | 69 | 1019.3 |
| 20260902084204 | 60 | 191 | 0.0 | 0.0 | 0.00 | 0.00 | 0.00 | 69 | 1019.3 |
| 20260902083704 | 60 | 191 | 0.0 | 0.0 | 0.00 | 0.00 | 0.00 | 68 | 1019.3 |
| 20260902083204 | 60 | 191 | 0.0 | 1.0 | 0.00 | 0.00 | 0.00 | 68 | 1019.3 |
| 20260902082704 | 61 | 191 | 0.0 | 0.0 | 0.00 | 0.00 | 0.00 | 68 | 1019.3 |
| 20260902082205 | 61 | 191 | 0.0 | 0.0 | 0.00 | 0.00 | 0.00 | 68 | 1019.3 |
| 20260902081204 | 61 | 191 | 0.0 | 0.0 | 0.00 | 0.00 | 0.00 | 67 | 1019.3 |
| 20260902080704 | 61 | 191 | 0.0 | 0.0 | 0.00 | 0.00 | 0.00 | 66 | 1019.3 |
| 20260902080204 | 62 | 191 | 0.0 | 0.0 | 0.00 | 0.00 | 0.00 | 66 | 1019.3 |
| 20260902075704 | 62 | 191 | 0.0 | 0.0 | 0.00 | 0.00 | 0.00 | 64 | 1019.3 |
| 20260902075204 | 62 | 191 | 0.0 | 0.0 | 0.00 | 0.00 | 0.00 | 64 | 1019.3 |
| 20260902074704 | 63 | 191 | 0.0 | 0.0 | 0.00 | 0.00 | 0.00 | 64 | 1019.3 |
| 20260902074204 | 63 | 191 | 0.0 | 0.0 | 0.00 | 0.00 | 0.00 | 64 | 1019.4 |
| 20260902073704 | 63 | 191 | 0.0 | 0.0 | 0.00 | 0.00 | 0.00 | 63 | 1019.4 |
| 20260902073204 | 63 | 191 | 0.0 | 0.0 | 0.00 | 0.00 | 0.00 | 62 | 1019.4 |
| 20260902072704 | 63 | 191 | 0.0 | 0.0 | 0.00 | 0.00 | 0.00 | 62 | 1019.4 |
| 20260902072205 | 64 | 191 | 0.0 | 0.0 | 0.00 | 0.00 | 0.00 | 62 | 1019.4 |
| 20260902071704 | 64 | 191 | 0.0 | 0.0 | 0.00 | 0.00 | 0.00 | 61 | 1019.4 |
| 20260902071204 | 64 | 191 | 0.0 | 0.0 | 0.00 | 0.01 | 0.00 | 62 | 1019.3 |
| 20260902070205 | 64 | 191 | 1.0 | 2.0 | 0.00 | 0.01 | 0.00 | 62 | 1019.2 |
| 20260902065704 | 64 | 191 | 0.0 | 2.0 | 0.00 | 0.01 | 0.00 | 61 | 1019.2 |
| 20260902064704 | 64 | 191 | 0.0 | 0.0 | 0.00 | 0.01 | 0.00 | 61 | 1019.2 |
| 20260902063705 | 64 | 191 | 0.0 | 1.0 | 0.00 | 0.01 | 0.00 | 61 | 1019.2 |
| 20260902063204 | 64 | 191 | 0.0 | 0.0 | 0.00 | 0.01 | 0.00 | 62 | 1019.1 |
| 20260902062704 | 64 | 191 | 0.0 | 0.0 | 0.00 | 0.01 | 0.00 | 60 | 1019.0 |
| 20260902062204 | 64 | 191 | 0.0 | 0.0 | 0.00 | 0.01 | 0.00 | 61 | 1019.0 |
| 20260902061705 | 64 | 191 | 0.0 | 3.0 | 0.00 | 0.01 | 0.00 | 61 | 1019.1 |
| 20260902061204 | 65 | 217 | 0.0 | 0.0 | 0.00 | 0.02 | 0.00 | 61 | 1019.1 |
| 20260902060705 | 65 | 217 | 0.0 | 2.0 | 0.00 | 0.02 | 0.00 | 61 | 1019.1 |
| 20260902055704 | 65 | 218 | 0.0 | 2.0 | 0.00 | 0.02 | 0.02 | 61 | 1019.1 |
| 20260902055204 | 65 | 218 | 0.0 | 0.0 | 0.00 | 0.02 | 0.02 | 60 | 1019.1 |
| 20260902053704 | 65 | 217 | 0.0 | 1.0 | 0.00 | 0.02 | 0.02 | 58 | 1019.0 |
| 20260902053203 | 65 | 217 | 0.0 | 1.0 | 0.00 | 0.02 | 0.02 | 58 | 1019.0 |
| 20260902052704 | 66 | 218 | 0.0 | 0.0 | 0.00 | 0.02 | 0.02 | 59 | 1019.1 |
| 20260902052204 | 66 | 218 | 0.0 | 0.0 | 0.00 | 0.02 | 0.02 | 58 | 1019.1 |
| 20260902051704 | 66 | 218 | 0.0 | 0.0 | 0.00 | 0.02 | 0.02 | 58 | 1019.2 |
| 20260902050704 | 67 | 217 | 0.0 | 0.0 | 0.00 | 0.02 | 0.02 | 56 | 1019.2 |
| 20260902050204 | 67 | 218 | 0.0 | 0.0 | 0.00 | 0.02 | 0.02 | 56 | 1019.2 |
| 20260902045704 | 67 | 217 | 0.0 | 0.0 | 0.00 | 0.02 | 0.02 | 55 | 1019.1 |
| 20260902045204 | 67 | 218 | 0.0 | 0.0 | 0.00 | 0.02 | 0.02 | 55 | 1019.2 |
| 20260902044704 | 67 | 218 | 0.0 | 0.0 | 0.00 | 0.02 | 0.02 | 55 | 1019.3 |
| 20260902044204 | 68 | 217 | 0.0 | 1.0 | 0.00 | 0.02 | 0.02 | 54 | 1019.3 |
| 20260902043704 | 68 | 218 | 1.0 | 2.0 | 0.00 | 0.02 | 0.02 | 54 | 1019.3 |
| 20260902043204 | 68 | 217 | 0.0 | 0.0 | 0.00 | 0.02 | 0.02 | 53 | 1019.3 |
| 20260902042704 | 68 | 217 | 0.0 | 0.0 | 0.00 | 0.02 | 0.02 | 54 | 1019.4 |
| 20260902041704 | 69 | 217 | 0.0 | 0.0 | 0.00 | 0.02 | 0.02 | 52 | 1019.4 |
| 20260902041204 | 69 | 217 | 0.0 | 0.0 | 0.00 | 0.02 | 0.02 | 53 | 1019.5 |
| 20260902040704 | 69 | 217 | 0.0 | 0.0 | 0.00 | 0.02 | 0.02 | 53 | 1019.4 |
| 20260902035703 | 69 | 217 | 0.0 | 0.0 | 0.00 | 0.02 | 0.02 | 53 | 1019.4 |
| 20260902035204 | 69 | 217 | 0.0 | 0.0 | 0.00 | 0.02 | 0.02 | 53 | 1019.4 |
| 20260902034704 | 69 | 217 | 0.0 | 0.0 | 0.00 | 0.02 | 0.02 | 52 | 1019.4 |
| 20260902034205 | 70 | 217 | 1.0 | 3.0 | 0.00 | 0.02 | 0.02 | 51 | 1019.3 |
| 20260902033704 | 70 | 28 | 0.0 | 1.0 | 0.00 | 0.02 | 0.02 | 51 | 1019.4 |
| 20260902033203 | 70 | 28 | 0.0 | 0.0 | 0.00 | 0.02 | 0.02 | 50 | 1019.3 |
| 20260902032204 | 71 | 28 | 0.0 | 1.0 | 0.00 | 0.02 | 0.02 | 49 | 1019.3 |
| 20260902031704 | 71 | 28 | 0.0 | 0.0 | 0.00 | 0.02 | 0.02 | 48 | 1019.3 |
| 20260902031204 | 72 | 28 | 0.0 | 1.0 | 0.00 | 0.02 | 0.02 | 48 | 1019.2 |
| 20260902030704 | 72 | 28 | 0.0 | 0.0 | 0.00 | 0.02 | 0.02 | 47 | 1019.2 |
| 20260902030204 | 73 | 28 | 0.0 | 1.0 | 0.00 | 0.02 | 0.02 | 47 | 1019.3 |
| 20260902025704 | 73 | 28 | 0.0 | 2.0 | 0.00 | 0.02 | 0.02 | 45 | 1019.3 |
| 20260902025204 | 74 | 28 | 0.0 | 0.0 | 0.00 | 0.02 | 0.02 | 44 | 1019.2 |
| 20260902024703 | 74 | 28 | 0.0 | 1.0 | 0.00 | 0.02 | 0.02 | 43 | 1019.2 |
| 20260902024203 | 75 | 28 | 0.0 | 0.0 | 0.00 | 0.03 | 0.02 | 42 | 1019.1 |
| 20260902023204 | 76 | 28 | 0.0 | 0.0 | 0.00 | 0.04 | 0.02 | 39 | 1018.8 |
| 20260902022704 | 76 | 28 | 1.0 | 2.0 | 0.00 | 0.06 | 0.02 | 39 | 1018.8 |
| 20260902021706 | 77 | 28 | 0.0 | 0.0 | 0.00 | 0.10 | 0.02 | 37 | 1018.7 |
| 20260902021205 | 77 | 28 | 0.0 | 0.0 | 0.00 | 0.11 | 0.02 | 35 | 1018.6 |
| 20260902020705 | 78 | 28 | 0.0 | 1.0 | 0.00 | 0.12 | 0.02 | 35 | 1018.5 |
| 20260902015706 | 78 | 28 | 0.0 | 3.0 | 0.00 | 0.15 | 0.02 | 34 | 1018.4 |
| 20260902015206 | 78 | 28 | 1.0 | 3.0 | 0.00 | 0.16 | 0.02 | 34 | 1018.5 |
| 20260902014705 | 79 | 28 | 1.0 | 3.0 | 0.00 | 0.16 | 0.02 | 34 | 1018.5 |
| 20260902013205 | 79 | 353 | 1.0 | 5.0 | 0.00 | 0.16 | 0.02 | 33 | 1018.5 |
| 20260902012705 | 80 | 13 | 1.0 | 3.0 | 0.00 | 0.16 | 0.02 | 32 | 1018.5 |
| 20260902012206 | 80 | 12 | 2.0 | 5.0 | 0.00 | 0.16 | 0.02 | 31 | 1018.5 |
| 20260902011705 | 80 | 0 | 2.0 | 5.0 | 0.00 | 0.16 | 0.02 | 30 | 1018.4 |
| 20260902011205 | 80 | 12 | 1.0 | 3.0 | 0.00 | 0.16 | 0.02 | 31 | 1018.3 |
| 20260902010705 | 81 | 308 | 1.0 | 10.0 | 0.00 | 0.16 | 0.02 | 32 | 1018.3 |
| 20260902010206 | 81 | 355 | 0.0 | 2.0 | 0.00 | 0.16 | 0.02 | 32 | 1018.3 |
| 20260902005705 | 82 | 355 | 0.0 | 5.0 | 0.00 | 0.16 | 0.02 | 31 | 1018.1 |
| 20260902005205 | 82 | 18 | 0.0 | 1.0 | 0.00 | 0.16 | 0.02 | 30 | 1018.1 |
| 20260902004706 | 82 | 18 | 0.0 | 0.0 | 0.00 | 0.16 | 0.02 | 32 | 1018.2 |
| 20260902003705 | 83 | 18 | 0.0 | 0.0 | 0.00 | 0.16 | 0.02 | 31 | 1018.1 |